EW2804 Weather Reports


time (UTC)temp
F
wind
direction
speed
knots
gust
knots
rain 1hr
in
rain 24hr
in
rain mn
in
humidity
%
barometer
mb
20260508024529 63 260 0.0 0.0 0.00 0.00 0.00 69 1014.0
20260508023451 64 261 0.0 0.0 0.00 0.00 0.00 67 1013.9
20260508022424 65 261 0.0 0.0 0.00 0.00 0.00 65 1013.9
20260508021437 65 261 0.0 0.0 0.00 0.00 0.00 64 1013.7
20260508015310 66 261 0.0 0.0 0.00 0.00 0.00 62 1013.6
20260508014233 67 261 0.0 0.0 0.00 0.00 0.00 61 1013.4
20260508013203 67 261 0.0 0.0 0.00 0.00 0.00 60 1013.5
20260508012225 67 261 0.0 0.9 0.00 0.00 0.00 60 1013.5
20260508011213 68 261 0.0 2.6 0.00 0.00 0.00 59 1013.4
20260508010138 68 132 0.0 2.6 0.00 0.00 0.00 58 1013.6
20260508005121 69 119 0.0 1.7 0.00 0.00 0.00 58 1013.5
20260508004103 70 136 0.0 3.5 0.00 0.00 0.00 56 1013.1
20260508001853 71 40 0.0 0.0 0.00 0.00 0.00 58 1013.5
20260508000859 71 39 0.0 0.0 0.00 0.00 0.00 57 1013.5
20260507235843 72 39 0.0 0.0 0.00 0.00 0.00 53 1013.7
20260507234836 73 39 0.0 0.9 0.00 0.00 0.00 50 1013.6
20260507232726 73 38 0.0 1.7 0.00 0.00 0.00 45 1013.6
20260507231651 73 39 0.0 0.0 0.00 0.00 0.00 50 1013.7
20260507225504 73 39 0.0 0.9 0.00 0.00 0.00 45 1013.9
20260507224453 72 39 0.0 3.5 0.00 0.00 0.00 46 1014.0
20260507223511 72 51 0.0 2.6 0.00 0.00 0.00 48 1014.1
20260507222502 72 50 0.9 3.5 0.00 0.00 0.00 46 1014.2
20260507221433 72 30 0.9 3.5 0.00 0.00 0.00 49 1014.3
20260507220408 72 349 0.9 3.5 0.00 0.00 0.00 46 1014.3
20260507214223 72 38 0.0 0.0 0.00 0.00 0.00 46 1014.5
20260507213223 72 38 0.0 4.3 0.00 0.00 0.00 45 1014.6
20260507210008 73 276 0.9 4.3 0.00 0.00 0.00 47 1015.0
20260507205024 74 69 0.9 3.5 0.00 0.00 0.00 45 1014.9
20260507204019 73 331 0.9 3.5 0.00 0.00 0.00 45 1014.9
20260507203006 72 355 1.7 7.8 0.00 0.00 0.00 47 1015.2
20260507202018 72 15 1.7 7.8 0.00 0.00 0.00 46 1015.2
20260507201038 73 57 1.7 7.0 0.00 0.00 0.00 46 1015.4
20260507200005 72 40 0.9 8.7 0.00 0.00 0.00 45 1015.6
20260507195010 72 5 1.7 8.7 0.00 0.00 0.00 47 1015.7
20260507194020 72 47 2.6 7.8 0.00 0.00 0.00 45 1015.8
20260507192946 72 351 1.7 10.4 0.00 0.00 0.00 46 1015.8
20260507191929 72 355 2.6 10.4 0.00 0.00 0.00 50 1016.1
20260507190925 72 49 1.7 5.2 0.00 0.00 0.00 44 1016.4
20260507185852 71 36 1.7 12.2 0.00 0.00 0.00 45 1016.5
20260507184825 71 49 1.7 12.2 0.00 0.00 0.00 45 1016.4
20260507183749 71 48 1.7 9.6 0.00 0.00 0.00 46 1016.5
20260507182747 71 57 1.7 9.6 0.00 0.00 0.00 44 1016.6
20260507181711 71 344 1.7 6.1 0.00 0.00 0.00 51 1016.8
20260507180640 70 49 1.7 7.8 0.00 0.00 0.00 51 1017.0
20260507175653 69 46 1.7 7.8 0.00 0.00 0.00 51 1017.2
20260507174624 68 36 2.6 7.8 0.00 0.00 0.00 49 1017.5
20260507172454 68 9 1.7 5.2 0.00 0.00 0.00 53 1018.1
20260507171505 68 55 0.9 5.2 0.00 0.00 0.00 50 1018.3
20260507170512 68 32 0.9 5.2 0.00 0.00 0.00 55 1018.5
20260507165500 67 80 0.9 7.0 0.00 0.00 0.00 55 1018.6
20260507164519 67 42 1.7 7.0 0.00 0.00 0.00 52 1018.8
20260507163538 67 52 1.7 6.1 0.00 0.00 0.00 56 1018.8
20260507162519 66 91 0.9 5.2 0.00 0.00 0.00 55 1018.9
20260507160410 65 345 0.9 6.1 0.00 0.00 0.00 59 1019.0
20260507154255 63 37 0.9 4.3 0.00 0.00 0.00 63 1019.1
20260507152156 63 61 0.0 4.3 0.00 0.00 0.00 67 1019.3
20260507150041 61 45 0.9 3.5 0.00 0.03 0.00 66 1019.5
20260507143908 60 0 0.9 3.5 0.00 0.03 0.00 70 1019.6
20260507141809 59 49 0.9 2.6 0.00 0.03 0.00 73 1019.8
20260507140753 58 28 0.0 1.7 0.00 0.03 0.00 75 1019.9
20260507135746 57 0 0.0 0.9 0.00 0.03 0.00 78 1020.0
20260507134738 56 44 0.9 3.5 0.00 0.03 0.00 76 1019.9
20260507133709 55 343 0.0 0.0 0.00 0.03 0.00 81 1020.1
20260507130328 52 0 0.0 2.6 0.00 0.03 0.00 85 1019.8
20260507125252 52 52 0.0 0.0 0.00 0.03 0.00 86 1019.8
20260507124250 51 52 0.0 0.0 0.00 0.03 0.00 86 1019.8
20260507122055 50 43 0.0 0.0 0.00 0.03 0.00 85 1019.4
20260507121115 50 44 0.0 0.0 0.00 0.03 0.00 85 1019.3
20260507112708 51 44 0.0 0.0 0.00 0.03 0.00 84 1019.0
20260507110509 51 44 0.0 0.0 0.00 0.03 0.00 85 1018.8
20260507105529 51 44 0.0 0.0 0.00 0.03 0.00 84 1018.9
20260507104529 51 44 0.0 0.0 0.00 0.03 0.00 84 1018.7
20260507103507 51 43 0.0 0.0 0.00 0.03 0.00 84 1018.4
20260507101415 52 44 0.0 0.0 0.00 0.03 0.00 84 1018.1
20260507095326 52 44 0.0 0.0 0.00 0.03 0.00 82 1017.5
20260507093215 52 44 0.0 0.0 0.00 0.03 0.00 81 1017.2
20260507092140 52 44 0.0 0.0 0.00 0.03 0.00 81 1017.3
20260507091131 52 44 0.0 0.0 0.00 0.03 0.00 81 1017.3
20260507090151 53 44 0.0 0.0 0.00 0.03 0.00 80 1017.3
20260507085122 53 44 0.0 0.0 0.00 0.03 0.00 79 1017.3
20260507084100 54 44 0.0 0.0 0.00 0.03 0.00 79 1017.3
20260507083030 54 43 0.0 0.0 0.00 0.03 0.00 78 1017.4
20260507080910 54 44 0.0 0.0 0.00 0.03 0.00 78 1017.2
20260507074710 55 24 0.0 1.7 0.00 0.03 0.00 78 1016.9
20260507073722 55 313 0.0 3.5 0.00 0.03 0.00 77 1016.9
20260507072647 55 37 0.0 3.5 0.00 0.03 0.00 78 1016.7
20260507070521 54 13 0.0 1.7 0.00 0.03 0.00 78 1016.9
20260507064434 55 28 0.0 0.0 0.00 0.03 0.00 76 1017.1
20260507063440 55 0 0.0 0.0 0.00 0.03 0.00 76 1017.0
20260507062458 55 0 0.0 0.0 0.00 0.03 0.00 76 1016.8
20260507061443 56 0 0.0 0.9 0.00 0.03 0.00 75 1016.7
20260507060435 56 0 0.0 0.0 0.00 0.03 0.00 74 1016.6
20260507055457 56 0 0.0 0.0 0.00 0.03 0.00 74 1016.5
20260507054505 56 0 0.0 1.7 0.00 0.03 0.00 73 1016.3
20260507052349 57 0 0.0 1.7 0.00 0.03 0.00 73 1016.3
20260507051335 57 0 0.0 0.0 0.00 0.03 0.00 72 1016.3
20260507050308 57 0 0.0 3.5 0.00 0.03 0.00 72 1016.3
20260507045254 57 0 0.0 2.6 0.00 0.03 0.03 71 1016.3
20260507044243 58 40 0.0 1.7 0.00 0.03 0.03 71 1016.5
20260507043234 58 30 0.0 1.7 0.00 0.03 0.03 70 1016.6
20260507042233 58 30 0.0 5.2 0.00 0.03 0.03 70 1016.6
20260507041221 59 38 0.9 5.2 0.00 0.03 0.03 69 1016.5
20260507040200 59 64 0.9 7.0 0.00 0.03 0.03 69 1016.6
20260507032925 60 61 0.9 0.0 0.00 0.03 0.03 69 1016.7
20260507031922 60 49 0.9 4.3 0.00 0.03 0.03 69 1016.7
20260507030931 60 61 1.7 5.2 0.00 0.03 0.03 68 1016.6